CW3517 Weather Reports


time (UTC)temp
F
wind
direction
speed
knots
gust
knots
rain 1hr
in
rain 24hr
in
rain mn
in
humidity
%
barometer
mb
20260508054003 50 27 2.6 4.3 0.00 0.00 0.00 88 1013.9
20260508053003 50 32 1.7 4.3 0.00 0.00 0.00 88 1014.0
20260508052005 50 26 0.9 2.6 0.00 0.00 0.00 89 1014.0
20260508051216 49 35 1.7 3.5 0.00 0.00 0.00 89 1014.0
20260508050003 49 29 2.6 4.3 0.00 0.00 0.00 89 1013.8
20260508045004 49 28 1.7 3.5 0.00 0.00 0.00 90 1013.8
20260508044003 49 27 0.9 3.5 0.00 0.00 0.00 90 1013.9
20260508043003 49 52 1.7 3.5 0.00 0.00 0.00 89 1013.8
20260508042003 50 55 2.6 4.3 0.00 0.00 0.00 89 1013.6
20260508041003 50 46 2.6 5.2 0.00 0.00 0.00 88 1013.6
20260508040005 50 43 1.7 3.5 0.00 0.00 0.00 87 1013.6
20260508035003 50 55 1.7 3.5 0.00 0.00 0.00 87 1013.8
20260508034003 50 92 0.9 2.6 0.00 0.00 0.00 86 1013.8
20260508033003 51 93 1.7 2.6 0.00 0.00 0.00 86 1013.9
20260508032003 51 89 1.7 3.5 0.00 0.00 0.00 86 1014.0
20260508031218 51 93 1.7 3.5 0.00 0.00 0.00 86 1014.1
20260508030005 51 104 1.7 5.2 0.00 0.00 0.00 86 1014.2
20260508025003 51 125 0.9 4.3 0.00 0.00 0.00 85 1014.2
20260508024003 51 123 1.7 3.5 0.00 0.00 0.00 84 1014.2
20260508023003 51 126 2.6 6.1 0.00 0.00 0.00 85 1014.3
20260508022004 51 113 1.7 5.2 0.00 0.00 0.00 86 1014.3
20260508021003 51 87 1.7 3.5 0.00 0.00 0.00 86 1014.2
20260508020003 51 0 0.0 0.9 0.00 0.00 0.00 85 1014.3
20260508015003 51 126 0.9 3.5 0.00 0.00 0.00 86 1014.3
20260508014003 51 116 1.7 3.5 0.00 0.00 0.00 86 1014.3
20260508013003 51 0 0.0 2.6 0.00 0.00 0.00 86 1014.3
20260508012217 51 124 0.9 2.6 0.00 0.00 0.00 86 1014.3
20260508011003 51 0 0.0 0.0 0.00 0.00 0.00 87 1014.5
20260508010003 51 0 0.0 0.0 0.00 0.00 0.00 87 1014.5
20260508005003 51 0 0.0 0.0 0.00 0.00 0.00 87 1014.5
20260508004003 51 0 0.0 0.0 0.00 0.00 0.00 86 1014.5
20260508003003 51 0 0.0 1.7 0.00 0.00 0.00 85 1014.6
20260508002216 51 0 0.0 1.7 0.00 0.00 0.00 85 1014.5
20260508001003 51 0 0.0 0.0 0.00 0.00 0.00 85 1014.7
20260508000004 51 0 0.0 0.0 0.00 0.00 0.00 84 1014.7
20260507235003 51 137 0.9 2.6 0.00 0.00 0.00 83 1014.7
20260507234003 51 140 0.9 6.1 0.00 0.00 0.00 80 1014.8
20260507233003 51 0 0.0 0.0 0.00 0.00 0.00 78 1014.7
20260507232003 51 0 0.0 0.0 0.00 0.00 0.00 77 1014.8
20260507231003 51 0 0.0 0.0 0.00 0.00 0.00 78 1014.7
20260507230003 51 0 0.0 2.6 0.00 0.00 0.00 76 1014.8
20260507225218 51 0 0.0 0.0 0.00 0.00 0.00 77 1014.9
20260507224003 51 0 0.0 0.0 0.00 0.00 0.00 75 1014.9
20260507223218 51 0 0.0 1.7 0.00 0.00 0.00 74 1014.9
20260507222004 51 0 0.0 0.9 0.00 0.00 0.00 74 1014.8
20260507221003 51 0 0.0 1.7 0.00 0.00 0.00 73 1014.9
20260507220218 51 0 0.0 0.0 0.00 0.00 0.00 74 1014.9
20260507215218 52 0 0.0 0.0 0.00 0.00 0.00 73 1015.0
20260507214218 52 0 0.0 0.0 0.00 0.00 0.00 72 1014.9
20260507213003 52 0 0.0 0.0 0.00 0.00 0.00 72 1015.0
20260507212003 52 0 0.0 0.0 0.00 0.00 0.00 74 1015.0
20260507211003 52 0 0.0 0.0 0.00 0.00 0.00 72 1014.9
20260507210003 52 0 0.0 0.0 0.00 0.00 0.00 70 1014.9
20260507205003 52 0 0.0 0.0 0.00 0.00 0.00 71 1014.8
20260507204003 52 0 0.0 0.0 0.00 0.00 0.00 71 1014.8
20260507203003 52 0 0.0 2.6 0.00 0.00 0.00 71 1014.7
20260507202003 52 138 1.7 2.6 0.00 0.00 0.00 71 1014.6
20260507201003 52 0 0.0 1.7 0.00 0.00 0.00 72 1014.4
20260507200003 52 0 0.0 0.0 0.00 0.00 0.00 74 1014.4
20260507195003 52 0 0.0 0.0 0.00 0.00 0.00 73 1014.3
20260507194003 53 0 0.0 2.6 0.00 0.00 0.00 70 1014.2
20260507193003 54 0 0.0 0.0 0.00 0.00 0.00 69 1014.2
20260507192003 54 143 0.9 2.6 0.00 0.00 0.00 68 1014.2
20260507191003 55 124 1.7 5.2 0.00 0.00 0.00 67 1014.2
20260507190005 55 125 0.9 2.6 0.00 0.00 0.00 67 1014.1
20260507185003 56 134 1.7 5.2 0.00 0.00 0.00 67 1014.1
20260507184003 56 118 0.9 3.5 0.00 0.00 0.00 66 1014.1
20260507183003 56 126 0.9 2.6 0.00 0.00 0.00 66 1014.0
20260507182003 56 139 1.7 3.5 0.00 0.00 0.00 67 1014.0
20260507181004 56 144 2.6 7.0 0.00 0.00 0.00 66 1014.0
20260507180218 56 148 2.6 5.2 0.00 0.00 0.00 64 1014.1
20260507175003 56 153 2.6 6.1 0.00 0.00 0.00 62 1014.1
20260507174003 56 164 1.7 5.2 0.00 0.00 0.00 61 1014.1
20260507173003 57 171 1.7 5.2 0.00 0.00 0.00 60 1014.1
20260507172003 57 161 2.6 6.1 0.00 0.00 0.00 58 1014.1
20260507171218 58 156 3.5 7.0 0.00 0.00 0.00 57 1014.1
20260507170003 59 161 3.5 8.7 0.00 0.00 0.00 55 1014.1
20260507165004 59 184 3.5 7.8 0.00 0.00 0.00 55 1014.0
20260507164003 60 182 2.6 7.0 0.00 0.00 0.00 56 1014.0
20260507163003 60 177 4.3 13.0 0.00 0.00 0.00 55 1014.1
20260507162218 61 162 3.5 10.4 0.00 0.00 0.00 52 1014.1
20260507161003 62 162 4.3 12.2 0.00 0.00 0.00 54 1014.1
20260507160003 62 162 6.1 11.3 0.00 0.00 0.00 50 1014.1
20260507155217 62 146 7.0 13.0 0.00 0.00 0.00 49 1014.2
20260507154003 63 166 4.3 13.0 0.00 0.00 0.00 49 1014.2
20260507153003 63 153 7.0 12.2 0.00 0.00 0.00 49 1014.2
20260507152003 62 154 4.3 13.0 0.00 0.00 0.00 55 1014.2
20260507151217 62 159 3.5 8.7 0.00 0.00 0.00 55 1014.2
20260507150003 62 168 4.3 8.7 0.00 0.00 0.00 54 1014.3
20260507145003 62 166 4.3 11.3 0.00 0.00 0.00 53 1014.4
20260507144003 62 173 3.5 10.4 0.00 0.00 0.00 54 1014.4
20260507143003 62 168 6.1 11.3 0.00 0.00 0.00 54 1014.6
20260507142003 63 176 4.3 13.0 0.00 0.00 0.00 54 1014.6
20260507141003 63 163 6.1 12.2 0.00 0.00 0.00 54 1014.8
20260507140003 62 177 6.1 11.3 0.00 0.00 0.00 58 1014.7
20260507135003 62 163 4.3 13.0 0.00 0.00 0.00 55 1014.7
20260507134004 62 152 7.0 13.0 0.00 0.00 0.00 56 1014.7
20260507133219 62 158 7.0 13.0 0.00 0.00 0.00 52 1014.7
20260507132003 62 154 6.1 13.9 0.00 0.00 0.00 59 1014.7
20260507131003 62 165 7.0 11.3 0.00 0.00 0.00 56 1014.7
20260507130003 61 170 3.5 7.0 0.00 0.00 0.00 64 1014.8
20260507125003 60 189 3.5 7.8 0.00 0.00 0.00 68 1014.8
20260507124003 58 173 4.3 10.4 0.00 0.00 0.00 64 1014.8
20260507123003 57 163 4.3 8.7 0.00 0.00 0.00 67 1014.9
20260507122003 57 178 3.5 7.0 0.00 0.00 0.00 67 1015.0
20260507121003 57 151 6.1 11.3 0.00 0.00 0.00 68 1015.0
20260507120003 58 155 4.3 12.2 0.00 0.00 0.00 67 1015.0
20260507115003 59 169 4.3 8.7 0.00 0.00 0.00 71 1015.0
20260507114003 59 180 3.5 8.7 0.00 0.00 0.00 69 1015.0
20260507113003 60 180 3.5 11.3 0.00 0.00 0.00 68 1015.0
20260507112004 61 154 6.1 12.2 0.00 0.00 0.00 70 1015.0
20260507111003 61 170 6.1 11.3 0.00 0.00 0.00 65 1015.0
20260507110003 61 163 7.0 13.9 0.00 0.00 0.00 67 1015.0
20260507105003 61 170 7.0 12.2 0.00 0.00 0.00 69 1015.0
20260507104003 62 155 7.8 15.6 0.00 0.00 0.00 64 1015.0
20260507103003 61 170 6.1 11.3 0.00 0.00 0.00 65 1015.1
20260507102217 61 193 4.3 10.4 0.00 0.00 0.00 64 1015.0
20260507101003 59 146 4.3 12.2 0.00 0.00 0.00 71 1015.1
20260507100003 60 147 6.1 12.2 0.00 0.00 0.00 68 1015.2
20260507095003 59 186 2.6 7.8 0.00 0.00 0.00 71 1015.1
20260507094003 58 186 3.5 8.7 0.00 0.00 0.00 71 1015.0
20260507093003 58 205 3.5 7.8 0.00 0.00 0.00 74 1015.0
20260507092003 58 192 3.5 7.8 0.00 0.00 0.00 74 1015.0
20260507091217 58 196 3.5 7.8 0.00 0.00 0.00 74 1015.0
20260507090005 57 153 4.3 10.4 0.00 0.00 0.00 76 1015.0
20260507085217 57 162 3.5 10.4 0.00 0.00 0.00 78 1015.0
20260507084217 56 171 3.5 10.4 0.00 0.00 0.00 77 1015.0
20260507083003 56 132 6.1 10.4 0.00 0.00 0.00 77 1015.1
20260507082003 55 154 4.3 8.7 0.00 0.00 0.00 83 1015.1
20260507081003 54 160 2.6 7.0 0.00 0.00 0.00 84 1015.1
20260507080003 54 157 1.7 5.2 0.00 0.00 0.00 83 1015.1
20260507075003 53 147 1.7 3.5 0.00 0.00 0.00 86 1015.1
20260507074216 52 146 1.7 3.5 0.00 0.00 0.00 87 1015.1
20260507073003 51 143 0.9 2.6 0.00 0.00 0.00 87 1015.0
20260507072003 51 141 0.9 2.6 0.00 0.00 0.00 87 1014.9
20260507071003 50 92 0.9 1.7 0.00 0.00 0.00 88 1014.8
20260507070005 49 0 0.0 1.7 0.00 0.00 0.00 90 1014.8
20260507065003 48 0 0.0 0.0 0.00 0.00 0.00 90 1014.8
20260507064003 48 0 0.0 0.0 0.00 0.00 0.00 90 1014.7
20260507063003 48 0 0.0 0.9 0.00 0.00 0.00 91 1014.6
20260507062004 47 0 0.0 0.9 0.00 0.00 0.00 91 1014.6
20260507061003 47 0 0.0 1.7 0.00 0.00 0.00 92 1014.5
20260507060003 46 56 0.9 2.6 0.00 0.00 0.00 93 1014.5
20260507055003 46 0 0.0 1.7 0.00 0.00 0.00 93 1014.5